Location: Unspecified
(0.0000°N, 0.0000°E)
Time: 17:53:14
(UTC+00:00)

STARLINK 1034 - Pass Details

Date: 17 January 2020
Orbit: 437 x 439 km, 53.0° (Epoch: 17 January)

Event Time Altitude Azimuth Distance (km) Brightness Sun altitude
Rises 05:32:55 0° 214° (SW) 2,412 6.8 -8.6°
Reaches altitude 10° 05:35:02 10° 214° (SW) 1,542 5.8 -8.1°
Maximum altitude 05:38:30 89° 309° (NW) 439 3.1 -7.3°
Drops below altitude 10° 05:41:56 10° 34° (NE) 1,534 6.1 -6.5°
Sets 05:44:03 0° 34° (NE) 2,399 7.1 -6.0°
